Regional Weather Roundup
Issued by NWS Raleigh/Durham, NC

Home | Current Version | Previous Version | Text Only | Print | Product List | Glossary On
Versions: 1 2 3 4 5 6 7 8 9 10 11 12 13 14 15 16 17 18 19 20 21 22 23 24 25 26 27 28
000
ASUS42 KRAH 250210
RWRRAH
NORTH CAROLINA WEATHER ROUNDUP
NATIONAL WEATHER SERVICE RALEIGH NC
1000 PM EDT SAT SEP 24 2016

NOTE: "FAIR" INDICATES FEW OR NO CLOUDS BELOW 12,000 FEET WITH NO
SIGNIFICANT WEATHER AND/OR OBSTRUCTIONS TO VISIBILITY.

NCZ001-053-055-056-065-067-250300-
WESTERN NORTH CAROLINA

CITY           SKY/WX    TMP DP  RH WIND       PRES   REMARKS
ASHEVILLE      CLEAR     71  62  73 CALM      30.16R
JEFFERSON      CLEAR     71  57  61 CALM      30.21S
MORGANTON      PTCLDY    77  64  64 N3        30.13R
HICKORY        CLOUDY    80  63  55 CALM      30.08R
RUTHERFORDTON  MOCLDY    78  63  58 E5        30.09R
MOUNT AIRY     CLEAR     74  67  76 CALM      30.11R
BOONE          CLEAR     61  58  91 CALM      30.23R
$$

NCZ021-022-025-041-071-084-088-250300-
CENTRAL NORTH CAROLINA

CITY           SKY/WX    TMP DP  RH WIND       PRES   REMARKS
CHARLOTTE      CLEAR     78  64  61 S6        30.07R
GREENSBORO     PTCLDY    78  66  66 CALM      30.07R
WINSTON-SALEM  CLEAR     73  65  75 CALM      30.08R
RALEIGH-DURHAM PTCLDY    74  70  87 CALM      30.05R
FORT BRAGG     CLEAR     73  72  94 CALM      30.04R
FAYETTEVILLE   CLEAR     77  70  79 CALM      30.04R
BURLINGTON     CLEAR     72  69  90 CALM      30.05R
LAURINBURG     CLEAR     73  71  93 CALM      30.05R
$$

NCZ011-015-027-028-043-044-047-080-103-250300-
NORTHEASTERN NORTH CAROLINA

CITY           SKY/WX    TMP DP  RH WIND       PRES   REMARKS
ROCKY MT-WILSO CLEAR     72  72 100 CALM      30.04R
GREENVILLE     CLEAR     73  73 100 E13       30.06R
WASHINGTON     CLEAR     74  72  93 NE8       30.05R
ELIZABETH CITY CLOUDY    73  68  84 NE12      30.08R
MANTEO         CLEAR     73  69  87 NE18      30.06S
CAPE HATTERAS  MOCLDY    75  71  87 NE8       30.05R
$$

NCZ078-087-090-091-093-098-101-250300-
SOUTHEASTERN NORTH CAROLINA

CITY           SKY/WX    TMP DP  RH WIND       PRES   REMARKS
LUMBERTON      CLEAR     71  69  93 CALM      30.04R
GOLDSBORO      CLEAR     73  73  99 CALM      30.02S
KENANSVILLE    CLEAR     70  70 100 CALM      30.05R
NEW BERN       CLEAR     73  70  90 S3        30.05R
CHERRY POINT   NOT AVBL
BEAUFORT       CLEAR     74  70  87 CALM      30.04R
JACKSONVILLE   CLEAR     73  71  93 CALM      30.04R
WILMINGTON     CLEAR     73  71  93 CALM      30.05R
$$





USA.gov is the U.S. government's official web portal to all federal, state and local government web resources and services.